MST,Max TemperatureF,Mean TemperatureF,Min TemperatureF,Max Dew PointF,MeanDew PointF,Min DewpointF,Max Humidity, Mean Humidity, Min Humidity, Max Sea Level PressureIn, Mean Sea Level PressureIn, Min Sea Level PressureIn, Max VisibilityMiles, Mean VisibilityMiles, Min VisibilityMiles, Max Wind SpeedMPH, Mean Wind SpeedMPH, Max Gust SpeedMPH,PrecipitationIn, CloudCover, Events, WindDirDegrees
2011-11-1,45,33,20,28,23,16,92,66,39,30.49,30.27,30.09,,,,22,8,29,0.00,,,301
2011-11-2,50,33,15,23,16,13,92,58,23,30.50,30.35,30.09,,,,24,8,30,0.00,,,244
2011-11-3,59,39,19,19,16,12,81,49,17,30.07,29.88,29.75,,,,17,5,21,0.00,,,198
2011-11-4,56,36,16,25,18,13,92,58,24,29.76,29.69,29.60,,,,13,5,15,0.00,,,293
2011-11-5,33,28,22,28,24,20,92,81,69,29.71,29.65,29.60,,,,24,14,29,0.12,,,312
2011-11-6,34,24,13,23,19,15,91,71,51,30.07,29.85,29.70,,,,23,13,29,0.00,,,287
2011-11-7,41,26,11,20,15,8,88,63,37,30.19,30.15,30.11,,,,13,4,15,0.00,,,261
2011-11-8,46,31,16,22,19,13,88,61,34,30.20,30.15,30.12,,,,24,10,35,0.00,,,289
2011-11-9,46,31,15,24,18,14,84,56,28,30.52,30.43,30.32,,,,14,4,17,0.00,,,282
2011-11-10,55,35,15,26,20,13,84,56,28,30.28,29.98,29.78,,,,18,6,23,0.00,,,253
2011-11-11,61,44,26,22,17,11,75,46,16,29.79,29.58,29.30,,,,25,7,31,0.00,,,257
2011-11-12,51,42,33,31,24,17,82,54,26,29.41,29.35,29.27,,,,23,10,29,0.00,,,282
2011-11-13,50,37,24,31,25,21,92,65,38,29.48,29.34,29.26,,,,29,12,33,0.00,,,272
2011-11-14,44,33,21,29,24,17,88,69,49,29.67,29.51,29.44,,,,26,11,32,0.00,,,276
2011-11-15,37,29,20,20,12,4,74,50,26,30.16,29.97,29.70,,,,24,11,32,0.00,,,285
2011-11-16,38,23,8,14,6,1,74,48,21,30.29,30.24,30.14,,,,21,7,26,0.00,,,281
2011-11-17,51,30,9,27,13,3,80,52,24,30.07,29.69,29.52,,,,26,11,36,0.00,,,249
2011-11-18,34,21,8,18,7,1,74,56,38,30.08,29.89,29.65,,,,23,13,26,0.00,,,344
2011-11-19,10,2,-6,0,-4,-10,82,73,63,30.23,30.17,29.98,,,,17,6,20,0.15,,,83
2011-11-20,35,13,-9,17,2,-15,88,66,43,30.16,30.10,30.01,,,,21,3,26,0.00,,,226
2011-11-21,40,20,-1,22,11,-5,87,67,47,30.10,30.01,29.92,,,,13,3,16,0.00,,,219
2011-11-22,49,30,10,29,23,9,88,67,45,30.01,29.89,29.80,,,,23,8,30,0.00,,,234
2011-11-23,67,54,41,28,26,23,57,39,20,29.88,29.72,29.61,,,,35,12,43,0.00,,,236
2011-11-24,62,46,29,30,25,22,78,49,20,29.76,29.68,29.60,,,,24,5,28,0.00,,,308
2011-11-25,46,34,22,32,24,17,92,64,36,30.34,29.87,29.65,,,,30,11,39,0.00,,,288
2011-11-26,42,30,18,25,16,10,88,58,27,30.60,30.47,30.30,,,,20,6,24,0.00,,,263
2011-11-27,59,41,22,24,20,15,68,46,24,30.28,30.03,29.83,,,,24,9,31,0.00,,,249
2011-11-28,52,37,21,31,24,20,75,52,28,30.39,30.24,29.87,,,,26,6,32,0.00,,,331
2011-11-29,51,34,17,30,23,13,91,64,36,30.27,30.15,29.96,,,,8,2,9,0.00,,,269
2011-11-30,41,32,22,37,29,21,92,81,70,30.67,30.13,29.88,,,,26,8,33,0.10,,,359